[[{"header":{"parameterUnit":"m.s-1","parameterCategory":1,"la1":30.2991,"la2":30.254,"lo1":-89.0895,"lo2":-89.0444,"dy":0.0017,"dx":0.0017,"nx":28,"ny":28,"refTime":"2023-09-02T09:00:00:Z","depth":0,"parameterNumber":2,"parameterNumberName":"U-component_of_WINDS"},"data":[0,0,0,0,0,0,0,0,0,0,0,0,0,0,0,0,0,0,0,0,0,0,0,0,0,0,0,0,0,0,0,0,0,0,0,0,0,0,0,0,0,0,0,0,0,0,0,0,0,0,0,0,0,0,0,0,0,0,-2.3213,-2.3211,0,-2.3095,-2.3094,-2.3093,-2.3017,-2.3017,-2.3016,-2.3016,-2.2896,-2.2893,-2.2891,0,0,0,0,0,0,0,0,0,0,0,0,0,-2.3371,-2.3368,-2.3213,-2.3211,-2.321,-2.3096,-2.3094,-2.3092,-2.3017,-2.3017,-2.3016,-2.3016,-2.2897,-2.2894,-2.289,0,0,0,0,0,0,0,0,0,0,0,0,0,-2.3283,-2.3368,-2.3213,-2.3159,-2.3153,-2.3096,-2.3094,-2.3092,-2.3017,-2.3017,-2.3016,-2.3015,-2.2898,-2.2894,-2.289,-2.2878,0,0,-2.2877,-2.2875,0,0,0,0,0,0,0,0,-2.3288,-2.3277,-2.3168,-2.3162,-2.3155,-2.307,-2.3106,-2.302,-2.3018,-2.3069,-2.3016,-2.3015,-2.2955,-2.2946,-2.2925,-2.2873,-2.2867,-2.2877,-2.2874,-2.2873,-2.2871,0,0,0,0,0,0,0,-2.3294,-2.3282,-2.3166,-2.3167,-2.3159,-2.314,-2.3127,-2.3089,-2.3017,-2.3064,-2.3059,-2.3046,-2.2951,-2.2929,-2.2922,-2.2866,-2.2877,-2.2873,-2.2871,-2.2869,-2.2796,-2.2796,0,0,0,0,0,0,-2.3309,-2.3287,-2.317,-2.3163,-2.3221,-2.3138,-2.3123,-2.3098,-2.3017,-2.3004,-2.3046,-2.3043,-2.2937,-2.2927,-2.2917,-2.2897,-2.2873,-2.2869,-2.2866,-2.2795,-2.2796,-2.2796,0,0,0,0,0,0,-2.3313,-2.3299,-2.3175,-2.3223,-2.3206,-2.3136,-2.3109,-2.3096,-2.3075,-2.3004,-2.299,-2.3038,-2.2936,-2.2923,-2.2888,-2.2891,-2.2867,-2.2863,-2.2795,-2.2795,-2.2796,-2.2856,0,0,0,0,0,0,-2.3317,-2.3301,-2.3296,-2.3224,-2.3204,-2.3148,-2.3109,-2.3095,-2.3068,-2.3062,-2.2992,-2.298,-2.2934,-2.2895,-2.2884,-2.2885,-2.286,-2.2794,-2.2795,-2.2796,-2.2854,-2.2859,-2.2864,0,0,0,0,0,-2.3323,-2.3318,-2.3296,-2.3282,-2.3196,-2.3148,-2.3137,-2.3084,-2.3068,-2.3062,-2.3017,-2.2982,-2.2893,-2.2892,-2.2879,-2.2879,-2.2793,-2.2795,-2.2796,-2.2852,-2.2858,-2.2864,0,0,0,0,0,0,-2.3393,-2.3308,-2.3282,-2.3254,-2.3209,-2.3136,-2.3126,-2.3093,-2.3052,-2.3048,-2.2985,-2.297,-2.2941,-2.2907,-2.2907,-2.2863,-2.2839,-2.2838,-2.2886,-2.2892,-2.2897,-2.2905,-2.2856,0,0,0,0,0,-2.3405,-2.3373,-2.33,-2.3282,-2.3261,-2.3198,-2.3175,-2.3139,-2.3089,-2.307,-2.3022,-2.2975,-2.2936,-2.2912,-2.2873,-2.2849,-2.2832,-2.2843,-2.2848,-2.2852,-2.2852,-2.2834,-2.2838,-2.28,-2.28,-2.28,0,0,-2.3429,-2.3379,-2.3363,-2.3295,-2.3256,-2.3223,-2.3182,-2.3151,-2.3126,-2.3065,-2.3028,-2.2992,-2.2935,-2.2905,-2.289,-2.2876,-2.2858,-2.2854,-2.2858,-2.2855,-2.2836,-2.284,-2.2843,-2.2801,-2.2801,-2.2801,0,0,-2.3457,-2.3416,-2.3395,-2.3357,-2.3298,-2.3256,-2.3251,-2.3183,-2.3155,-2.3118,-2.3071,-2.3041,-2.2976,-2.2938,-2.291,-2.2922,-2.2888,-2.2911,-2.2937,-2.2921,-2.2924,-2.2926,-2.2929,-2.2931,-2.2911,-2.2911,-2.2911,0,-2.3494,-2.3444,-2.3389,-2.3359,-2.333,-2.3274,-2.3252,-2.3217,-2.3149,-2.313,-2.3116,-2.3032,-2.2991,-2.295,-2.2953,-2.2933,-2.2924,-2.2918,-2.2928,-2.293,-2.2931,-2.2933,-2.2934,-2.2914,-2.2914,-2.2913,-2.2913,0,-2.3492,-2.3458,-2.3449,-2.3383,-2.3353,-2.3328,-2.3268,-2.3245,-2.3211,-2.317,-2.3132,-2.308,-2.3029,-2.3017,-2.2984,-2.2971,-2.2964,-2.294,-2.2914,-2.2939,-2.2939,-2.2939,-2.2919,-2.2917,-2.2917,-2.2916,0,0,-2.356,-2.3464,-2.3461,-2.343,-2.336,-2.3333,-2.3304,-2.3253,-2.3234,-2.3188,-2.3162,-2.3108,-2.3085,-2.3054,-2.3016,-2.3002,-2.3013,-2.2979,-2.2977,-2.2986,-2.2994,-2.3011,-2.3013,-2.2991,-2.2991,-2.2991,-2.2998,0,-2.3576,-2.3521,-2.347,-2.3434,-2.3401,-2.3347,-2.3322,-2.3277,-2.3238,-2.3204,-2.3161,-2.3124,-2.3097,-2.3077,-2.3061,-2.3015,-2.3014,-2.3014,-2.2965,-2.2964,-2.2979,-2.3013,-2.3031,-2.304,-2.2998,-2.2998,-2.2998,0,-2.3586,-2.3543,-2.3503,-2.3435,-2.342,-2.3398,-2.3346,-2.3315,-2.3262,-2.3235,-2.3199,-2.316,-2.3126,-2.3106,-2.3059,-2.306,-2.3037,-2.3012,-2.3011,-2.3003,-2.2981,-2.3004,-2.3042,-2.3043,-2.2998,-2.2998,-2.2998,0,-2.3637,-2.3569,-2.3535,-2.3511,-2.3432,-2.3417,-2.3384,-2.333,-2.3302,-2.3258,-2.3239,-2.3191,-2.3165,-2.3129,-2.3077,-2.3067,-2.3035,-2.3011,-2.301,-2.3012,-2.3005,-2.3005,-2.3037,-2.2993,-2.2993,-2.2993,-2.2993,0,-2.3659,-2.3637,-2.3557,-2.3536,-2.3509,-2.3451,-2.3426,-2.3387,-2.334,-2.331,-2.3262,-2.3235,-2.3169,-2.3135,-2.3094,-2.306,-2.3049,-2.3026,-2.3015,-2.3029,-2.3032,-2.3012,-2.3009,-2.2993,-2.2993,-2.2993,-2.2993,0,-2.3711,-2.3657,-2.3616,-2.3545,-2.3526,-2.3509,-2.3447,-2.3425,-2.3383,-2.3347,-2.3335,-2.327,-2.3227,-2.3172,-2.3112,-2.3084,-2.3054,-2.3039,-2.3072,-2.3065,-2.3067,-2.3067,-2.3086,-2.3085,-2.3044,-2.3044,-2.3045,0,-2.3727,-2.3708,-2.3634,-2.3611,-2.3578,-2.3542,-2.3513,-2.3455,-2.3427,-2.3364,-2.335,-2.3303,-2.3261,-2.3195,-2.3142,-2.3096,-2.3077,-2.3087,-2.307,-2.3084,-2.3075,-2.3076,-2.3073,-2.3091,-2.3092,-2.3093,-2.3093,0,-2.3762,-2.3736,-2.3696,-2.3646,-2.3613,-2.3572,-2.3528,-2.3512,-2.3445,-2.3416,-2.337,-2.3339,-2.3277,-2.323,-2.3176,-2.3141,-2.3106,-2.3099,-2.3096,-2.3109,-2.3129,-2.3116,-2.3082,-2.3099,-2.3098,-2.3098,-2.3097,-2.3097,-2.3795,-2.3775,-2.3719,-2.3676,-2.3637,-2.3597,-2.3572,-2.3527,-2.3488,-2.3432,-2.3401,-2.3357,-2.3303,-2.3227,-2.3194,-2.3158,-2.3144,-2.3141,-2.314,-2.3139,-2.3143,-2.3136,-2.3148,-2.3148,-2.3148,-2.3147,-2.3147,0,-2.3825,-2.3786,-2.3748,-2.3687,-2.3653,-2.3623,-2.3573,-2.3546,-2.3507,-2.346,-2.3421,-2.3368,-2.3323,-2.3266,-2.3217,-2.3199,-2.3181,-2.3188,-2.3187,-2.318,-2.3158,-2.3165,-2.3203,-2.3203,-2.3203,-2.3203,-2.3203,-2.3203,-2.3837,-2.3801,-2.3768,-2.3712,-2.3673,-2.3629,-2.3602,-2.3565,-2.3527,-2.347,-2.3432,-2.3395,-2.3344,-2.329,-2.3247,-2.3231,-2.3215,-2.3226,-2.3206,-2.3186,-2.3181,-2.3177,-2.3182,-2.3223,-2.3223,-2.3229,-2.3229,-2.3229]},{"header":{"parameterUnit":"m.s-1","parameterCategory":1,"la1":30.2991,"la2":30.254,"lo1":-89.0895,"lo2":-89.0444,"dy":0.0017,"dx":0.0017,"nx":28,"ny":28,"refTime":"2023-09-02T09:00:00:Z","depth":0,"parameterNumber":3,"parameterNumberName":"V-component_of_WINDS"},"data":[0,0,0,0,0,0,0,0,0,0,0,0,0,0,0,0,0,0,0,0,0,0,0,0,0,0,0,0,0,0,0,0,0,0,0,0,0,0,0,0,0,0,0,0,0,0,0,0,0,0,0,0,0,0,0,0,0,0,2.0225,2.0223,0,2.0098,2.0097,2.0095,2.0026,2.0026,2.0026,2.0026,1.989,1.9887,1.9884,0,0,0,0,0,0,0,0,0,0,0,0,0,2.0402,2.04,2.0225,2.0223,2.0222,2.0098,2.0097,2.0095,2.0026,2.0026,2.0026,2.0026,1.9892,1.9888,1.9883,0,0,0,0,0,0,0,0,0,0,0,0,0,2.0305,2.0399,2.0225,2.0173,2.0167,2.0099,2.0096,2.0094,2.0026,2.0026,2.0026,2.0026,1.9893,1.9888,1.9883,1.9855,0,0,1.9867,1.9865,0,0,0,0,0,0,0,0,2.0311,2.0299,2.0182,2.0176,2.017,2.0078,2.0109,2.0014,2.0026,2.008,2.0026,2.0026,1.9953,1.9943,1.9919,1.9849,1.9843,1.9866,1.9863,1.9861,1.986,0,0,0,0,0,0,0,2.0318,2.0304,2.0174,2.018,2.0173,2.0154,2.014,2.0091,2.0019,2.0075,2.007,2.0056,1.9949,1.9924,1.9915,1.9841,1.9867,1.9862,1.9859,1.9857,1.9741,1.9741,0,0,0,0,0,0,2.0334,2.031,2.0178,2.0171,2.0241,2.0151,2.0135,2.0107,2.0019,2.0006,2.0056,2.0053,1.9933,1.9922,1.991,1.9871,1.9861,1.9856,1.9853,1.9741,1.9741,1.9741,0,0,0,0,0,0,2.0338,2.0323,2.0184,2.0239,2.022,2.0148,2.0117,2.0105,2.008,2.0005,1.9991,2.0044,1.9933,1.9918,1.987,1.9866,1.9854,1.9849,1.9741,1.9741,1.9741,1.9794,0,0,0,0,0,0,2.0343,2.0325,2.0314,2.0239,2.0217,2.0147,2.0117,2.0103,2.0072,2.0067,1.999,1.9977,1.9931,1.9878,1.9865,1.9858,1.9845,1.9741,1.9741,1.9741,1.9792,1.9796,1.9799,0,0,0,0,0,2.035,2.0333,2.0314,2.0299,2.0203,2.0147,2.0134,2.0083,2.0072,2.006,2.0012,1.998,1.9869,1.9873,1.9858,1.985,1.9741,1.9741,1.9741,1.9791,1.9795,1.9799,0,0,0,0,0,0,2.0408,2.0322,2.03,2.026,2.0211,2.0135,2.0119,2.0089,2.0041,2.0038,1.9975,1.9958,1.9916,1.9878,1.9885,1.9818,1.9801,1.9798,1.9844,1.9848,1.9851,1.9861,1.9841,0,0,0,0,0,2.0416,2.0379,2.0306,2.0277,2.0254,2.0191,2.0164,2.013,2.0076,2.0054,2.0003,1.995,1.9904,1.9874,1.9827,1.9787,1.9769,1.9774,1.9778,1.9781,1.9778,1.9753,1.9755,1.9741,1.9741,1.9741,0,0,2.0432,2.0381,2.0361,2.0287,2.0246,2.0207,2.0174,2.0134,2.0104,2.0048,1.9999,1.996,1.9897,1.9853,1.9831,1.982,1.9778,1.9781,1.9784,1.9779,1.9754,1.9755,1.9756,1.9741,1.9741,1.9741,0,0,2.0442,2.04,2.0371,2.0331,2.0269,2.0227,2.0221,2.0149,2.0121,2.0072,2.0029,1.9992,1.9913,1.987,1.9838,1.9833,1.98,1.9819,1.9836,1.9812,1.9813,1.9814,1.9811,1.9811,1.9817,1.9817,1.9817,0,2.0469,2.0411,2.036,2.0323,2.0291,2.024,2.0209,2.0172,2.0097,2.0075,2.0065,1.9965,1.992,1.9864,1.9863,1.984,1.9828,1.9826,1.9818,1.9818,1.9818,1.9814,1.9813,1.982,1.9819,1.9819,1.9819,0,2.0447,2.0407,2.0391,2.0322,2.0288,2.0254,2.0197,2.0168,2.0137,2.0096,2.0046,1.999,1.9931,1.9915,1.9883,1.9856,1.9851,1.983,1.9811,1.9822,1.9818,1.9816,1.9823,1.9822,1.9822,1.9821,0,0,2.0487,2.0392,2.0387,2.0355,2.0283,2.025,2.0214,2.0158,2.0134,2.0085,2.0052,1.9987,1.9967,1.9931,1.9894,1.9874,1.9872,1.9855,1.9853,1.9859,1.9836,1.9851,1.9851,1.9851,1.9851,1.985,1.9841,0,2.0486,2.042,2.0373,2.0324,2.0286,2.0238,2.0206,2.0158,2.0119,2.008,2.0036,1.9991,1.9969,1.9947,1.9925,1.9877,1.9866,1.9877,1.9817,1.9816,1.9833,1.9848,1.9864,1.9858,1.9839,1.9839,1.9838,0,2.0474,2.0428,2.0377,2.0309,2.0291,2.0264,2.0208,2.0172,2.0116,2.0089,2.005,2.0012,1.997,1.9957,1.9897,1.9905,1.9878,1.9851,1.985,1.984,1.9827,1.9838,1.9855,1.9853,1.9835,1.9836,1.9836,0,2.0508,2.0433,2.0392,2.0366,2.0287,2.0269,2.0234,2.0178,2.0148,2.0099,2.0078,2.0025,1.9995,1.9953,1.9902,1.9897,1.9847,1.983,1.9822,1.9823,1.9812,1.9813,1.9823,1.9797,1.9798,1.9798,1.9798,0,2.051,2.0479,2.0406,2.0381,2.0345,2.0291,2.0257,2.0218,2.0169,2.0134,2.009,2.0057,1.9992,1.9952,1.9911,1.9867,1.9854,1.983,1.9819,1.9833,1.9836,1.9813,1.9812,1.9797,1.9797,1.9797,1.9797,0,2.054,2.049,2.0442,2.0372,2.0353,2.033,2.0269,2.0242,2.0201,2.0158,2.0144,2.008,2.003,1.9975,1.9907,1.9879,1.9837,1.9823,1.9857,1.985,1.9845,1.9846,1.9839,1.9835,1.9815,1.9815,1.9815,0,2.0544,2.052,2.0448,2.0422,2.039,2.0349,2.0318,2.0264,2.0233,2.0168,2.0148,2.0096,2.005,1.9973,1.9919,1.9866,1.9849,1.985,1.984,1.9855,1.9847,1.9848,1.9845,1.9852,1.9853,1.9853,1.9854,0,2.0556,2.0532,2.049,2.0439,2.0404,2.0361,2.0315,2.0297,2.0233,2.0201,2.015,2.0115,2.0046,1.9994,1.9935,1.9897,1.9864,1.9858,1.9853,1.9866,1.9886,1.9874,1.9863,1.9857,1.9857,1.9857,1.9857,1.9856,2.0572,2.0548,2.0494,2.0448,2.0409,2.0368,2.0339,2.0296,2.0253,2.0194,2.0164,2.0114,2.0058,1.9975,1.9939,1.9898,1.9887,1.9881,1.9879,1.9878,1.9881,1.9895,1.9887,1.9887,1.9887,1.9887,1.9886,0,2.058,2.0543,2.0502,2.0441,2.0405,2.0379,2.0328,2.0299,2.0256,2.0207,2.0165,2.0106,2.0056,1.9998,1.9944,1.9922,1.9905,1.9909,1.9909,1.9901,1.9894,1.9903,1.9923,1.9923,1.9923,1.9923,1.9923,1.9923,2.058,2.0538,2.0508,2.0446,2.0409,2.036,2.0333,2.0295,2.0256,2.0194,2.0152,2.0116,2.0063,2.0005,1.9957,1.9941,1.9922,1.993,1.991,1.9904,1.9901,1.9898,1.9907,1.9927,1.9927,1.992,1.992,1.992]}]]